Погода Мыс Болванский

Погода Мыс Болванский : погода сейчас, прогноз погоды и архив. Всё, что Вы хотите узнать о погоде Мыс Болванский!

Поиск расширенной информации на нашем сайте:

Полезная информация: Эта компания taganrog.delinet.ru придала наглядности наработки взято отсюда

Другие новости

Новости СМИ2

Главная страница сайта

Новости сайта

02.10.2013

Напоминаем, что на нашем новом сайте вы можете получить высокодетализированные прогнозы погоды по пунктам России, СНГ и мира (включающие важные для авиации метеовеличины, такие как направление и скорость ветра, видимость, явления погоды, количество и форма облачности, нижняя и верхняя граница облачности), а также ознакомиться с разнообразными материалами по авиационной метеорологии и подборкой полезных ссылок на эту тему.

Сайт Метеоцентр.Азия посвящён разработке технологий оптимизации авиаметеорологического обслуживания, включая проектирование и перспективное создание нескольких автоматизированных авиаметеорологических систем:
- система выпуска высокодетальных прогностических карт явлений погоды для нижнего воздушного пространства по России и ближнему зарубежью;
- система верификации прогнозов TAF (выпускаемых синоптиками официальных АМСГ РФ и ближнего зарубежья) и AUTOTAF (выпускаемых сайтом Метеоцентр.Азия) - выявление ошибок, онлайн-сопоставление с фактической погодой METAR, автоматическое внесение коррективов в прогнозы при резком отклонении фактической погоды от прогноза, подсчёт оправдываемости прогнозов по элементам и в целом;
- система обработки, анализа и отображения авиаметеорологической информации для применения провайдерами метеорологической информации.

Рекомендуем: Где купить металлический шкаф litpolmebel.com.

Погода Мыс Болванский - сегодня

Время (UTC), дата Ветер
(°,м/с) 
Видим.   Явления Облачность Т
(°С)
Тd
(°С)
f(%) Тe
(°С)
Pmin
(гПа)
dP
(гПа)
Po
(мм)
O2
(г/м3)
Тmin Tmax R s Состояние
почвы
21 26.03.17 190 (Ю) 11-13{14}  10 км  позёмок  10/0 средняя 
[Ac und]
-3.5 -4.9 90 -10  988.3  -1.6  740  303           
00 27.03.17 190 (Ю) 11-13{14}  10 км  позёмок  8/0 средняя 
[Ac trans]
-5.5 -8.3 81 -12  986.8  -1.5  739  305           
03 27.03.17 170 (Ю) 9-10{13}  20000 м  позёмок  6/0 средняя 
[Ac trans]
-7.8 -9.7 86 -14  985.9  -0.9  738  307  -7.8      неравномерный
сухой снег
100% 
06 27.03.17 180 (Ю) 7{11}  20000 м  позёмок  6/3 300 м средняя, верхняя 
[Sc|Ac trans|Ci fib]
-6.7 -8.1 90 -12  984.5  -1.4  737  305  -8.4         
09 27.03.17 190 (Ю) 8{10}  20000 м  позёмок  4/0 средняя, верхняя 
[Ac trans|Ci fib]
-5.9 -8.9 79 -11  982.8  -1.6  736  304           
12 27.03.17 200 (Ю) 20000 м  позёмок  8/0 средняя, верхняя 
[Ac trans|Ci fib]
-5.5 -6.9 90 -10  981.2  -1.6  735  303           
15 27.03.17 200 (Ю) 20000 м  позёмок  9/0 средняя, верхняя 
[Ac trans|Ci fib]
-6.4 -7.9 89 -12  980  -1.1  734  304    -5.2       
18 27.03.17 200 (Ю) 1000 м  позёмок  10/10 1140 м 
[Sc]
-6 -6.6 95 -11  978.9  -1.1  733  303           
21 27.03.17 200 (Ю) 4000 м  слаб. ливневой снег  10/10 480 м кучево-дожд. 
[Cb cap]
-5.7 -6.5 94 -11  977.9  -1  732  302           
00 28.03.17 200 (Ю) 4000 м  слаб. ливневой снег  10/10 500 м кучево-дожд. 
[Cb cap]
-6.3 -8.8 82 -11  977.5  -0.4  732  303           
03 28.03.17 200 (Ю) 10 км  позёмок{ливн. осадки}  10/0 средняя 
[Ac und]
-5.6 -7.1 89 -11  977.3  -0.2  732  302  -7.9    0.2  неравномерный
сухой снег
100% 
06 28.03.17 200 (Ю) 9-10{10}  4000 м  слаб. снег{ливн. осадки}  10/0 средняя 
[As trans]
-4.6 -5.5 93 -10  977.3  0.1  732  301           
09 28.03.17 220 (ЮЗ) 7{11}  10 км  позёмок{снег}  10/10 570 м 
[Sc]
-2.3 -3.5 91 -7  978.5  1.2  733  298           
12 28.03.17 220 (ЮЗ) 20000 м  {снег}  10/10 450 м 
[Sc]
-2.8 -4.4 89 -7  979.8  1.3  734  299           
15 28.03.17 190 (Ю) 11-13{13}  10 км  позёмок  10/10 450 м 
[Sc]
-3.1 -3.9 94 -9  979.5  -0.3  734  299    -2.3  0.2     
18 28.03.17 200 (Ю) 7{13}  4000 м  позёмок  10/10 300 м 
[Sc]
-3 -4.4 90 -7  980.5  734  300           
21 28.03.17 200 (Ю) 4000 м  позёмок  10/0 средняя 
[Ac und]
-3.6 -4.1 96 -8  980.6  0.1  734  300           
00 29.03.17 200 (Ю) 10 км    10/10 1140 м 
[Sc]
-4.8 -5.3 96 -8  980.5  0.1  734  302           
03 29.03.17 340 (С) 20000 м    8/0 средняя 
[Ac trans]
-4 -5.3 91 -5  980.7  0.2  734  301  -5.6      неравномерный
сухой снег
100% 
06 29.03.17 190 (Ю) 10 км    10/0 средняя 
[Ac und]
-3.3 -5.5 85 -3  980.7  0.1  735  300           
09 29.03.17 200 (Ю) 10 км    9/0 средняя 
[Ac trans]
-3.5 -5 89 -5  981.8  0.1  735  301           
12 29.03.17 210 (ЮЗ) 2000 м  слаб. ливневой снег  10/10 420 м кучево-дожд. 
[Cb cap]
-4 -4.8 94 -7  982.5  0.7  736  301           
15 29.03.17 210 (ЮЗ) 1000 м  ливневой снег  10/10 240 м кучево-дожд. 
[Cb cap]
-4.7 -5.3 96 -8  983  0.5  736  302    -2.2  0.6     
18 29.03.17 200 (Ю) 2000 м  слаб. ливневой снег  10/10 540 м кучево-дожд. 
[Cb cap]
-7 -8.4 90 -12  983.3  0.3  737  305           
21 29.03.17 200 (Ю) 2000 м  слаб. ливневой снег  10/10 500 м кучево-дожд. 
[Cb cap]
-6.7 -7.6 93 -11  983.6  0.2  737  305           
Время (UTC), дата Ветер
(°,м/с) 
Видим.   Явления Облачность Т
(°С)
Тd
(°С)
f(%) Тe
(°С)
Pmin
(гПа)
dP
(гПа)
Po
(мм)
O2
(г/м3)
Тmin Tmax R s Состояние
почвы

Для получения пояснительной информации подведите курсор к названию столбца.

ПОГОДА Мыс Болванский - архив

Всё, что Вы хотите узнать о погоде Мыс Болванский - удобно и подробно!

Выберите нужную дату (начиная с 1 января 2015* года) и нажмите кнопку "Найти".
Будут отображены архивные сводки погоды по пункту Мыс Болванский, начиная с указанной даты.


Отображать данные в формате CSV (для использования в таблицах Excel)


Внимание! Наш архив погоды предназначен исключительно для личного некоммерческого использования в познавательных целях. Если Вам необходимы официальные справки о состоянии погоды (для производственных, юридических, коммерческих и т.п. целей), обращайтесь в органы Росгидромета.

*Примечание: данная дата относится к архиву по метеостанциям СССР (Россия, СНГ, Балтия).
Архив по метеостанциям Зарубежной Европы и Азии (кроме Китая) хранится 10 дней, по другим регионам земного шара (Китай, Африка, Америка, Австралия, Океания) - 1 день.

Мыс Болванский - район местоположения метеостанции


Название, широта, долгота, высота метеостанции:
Мыс Болванский 70.4°ш. 59.1°д. 13 м над ур. моря [Российская Федерация]

Дополнительная информация

В oтличие oт бoльшинства пoгoдных сайтoв мы публикуем пoдрoбную метеoинфoрмацию в детальнoм прoфессиoнальнoм фoрмате.

Характеристики температуры и влажнoсти вoздуха измеряются на высoте 2 м в тени вдали oт зданий и деревьев.
Скoрoсть ветра измеряется на высoте 10 м (на урoвне рoста челoвека скoрoсть ветра ниже в 1.5-2 раза). Если метеoстанция нахoдится в гoрoде или в лесу, тo скoрoсть ветра занижена на 2-4 м/с пo сравнению с oткрытым местoм. Скoрoсть ветра над акватoриями крупных рек и oзёр, а также на вершинах хoлмoв на 2-5 м/с выше, чем в oбычных услoвиях.
Атмoсфернoе давление в разных тoчках местнoсти мoжет значительнo oтличаться oт давления на метеoстанции, в зависимoсти oт услoвий рельефа (при пoдъёме на 10 м давление пoнижается примернo на 1 мм рт.ст.).